CW6062 Weather Reports


Display with metric or nautical units.
time (UTC)temp
F
wind
direction
speed
MPH
gust
MPH
rain 1hr
in
rain 24hr
in
rain mn
in
humidity
%
barometer
mb
20260507134353 51 147 0.0 2.0 0.00 0.00 0.00 73 1015.2
20260507133848 51 147 0.0 2.0 0.00 0.00 0.00 73 1015.1
20260507133341 51 146 0.0 2.0 0.00 0.00 0.00 73 1015.0
20260507133056 51 150 0.0 3.0 0.00 0.00 0.00 73 1015.0
20260507132330 51 138 0.0 3.0 0.00 0.00 0.00 72 1014.9
20260507131823 51 151 0.0 2.0 0.00 0.00 0.00 73 1014.7
20260507131318 51 146 0.0 3.0 0.00 0.00 0.00 72 1014.9
20260507130812 51 121 0.0 3.0 0.00 0.00 0.00 72 1014.7
20260507130306 51 115 1.0 4.0 0.00 0.00 0.00 72 1014.6
20260507125800 51 117 0.0 4.0 0.00 0.00 0.00 71 1014.5
20260507125253 51 104 0.0 2.0 0.00 0.00 0.00 70 1014.6
20260507124748 51 104 0.0 2.0 0.00 0.00 0.00 70 1014.5
20260507124242 52 140 0.0 1.0 0.00 0.00 0.00 69 1014.5
20260507123230 52 152 1.0 4.0 0.00 0.00 0.00 68 1014.3
20260507122723 52 140 1.0 4.0 0.00 0.00 0.00 68 1014.3
20260507122218 52 145 1.0 6.0 0.00 0.00 0.00 67 1014.2
20260507121713 52 119 1.0 6.0 0.00 0.00 0.00 68 1014.2
20260507121427 53 143 1.0 4.0 0.00 0.00 0.00 67 1014.1
20260507120700 52 140 1.0 6.0 0.00 0.00 0.00 67 1014.0
20260507120413 52 104 1.0 3.0 0.00 0.00 0.00 67 1013.8
20260507115914 52 104 1.0 3.0 0.00 0.00 0.00 67 1013.8
20260507115142 52 113 0.0 2.0 0.00 0.00 0.00 66 1013.8
20260507114129 53 135 0.0 4.0 0.00 0.00 0.00 65 1013.8
20260507113623 53 132 0.0 4.0 0.00 0.00 0.00 65 1013.8
20260507112612 53 102 1.0 3.0 0.00 0.00 0.00 64 1013.7
20260507112106 53 140 1.0 2.0 0.00 0.00 0.00 63 1013.6
20260507111600 53 114 0.0 2.0 0.00 0.00 0.00 63 1013.3
20260507111054 54 128 1.0 2.0 0.00 0.00 0.00 63 1013.3
20260507110548 54 144 1.0 3.0 0.00 0.00 0.00 63 1013.2
20260507110305 54 147 1.0 3.0 0.00 0.00 0.00 63 1013.2
20260507105536 54 154 1.0 3.0 0.00 0.00 0.00 62 1013.1
20260507105029 54 128 1.0 4.0 0.00 0.00 0.00 62 1013.1
20260507104523 54 113 1.0 4.0 0.00 0.00 0.00 62 1013.1
20260507104018 54 117 1.0 4.0 0.00 0.00 0.00 62 1013.0
20260507103516 55 103 1.0 4.0 0.00 0.00 0.00 62 1013.0
20260507103001 55 109 1.0 4.0 0.00 0.00 0.00 61 1013.0
20260507102456 55 123 0.0 3.0 0.00 0.00 0.00 62 1012.8
20260507102212 55 137 0.0 2.0 0.00 0.00 0.00 62 1012.8
20260507100432 55 117 0.0 3.0 0.00 0.00 0.00 62 1012.6
20260507095926 56 150 0.0 2.0 0.00 0.00 0.00 63 1012.6
20260507095641 56 134 0.0 2.0 0.00 0.00 0.00 63 1012.6
20260507094914 56 127 0.0 2.0 0.00 0.00 0.00 63 1012.5
20260507094627 56 131 0.0 3.0 0.00 0.00 0.00 63 1012.3
20260507093902 56 119 1.0 3.0 0.00 0.00 0.00 62 1012.2
20260507093355 56 145 1.0 4.0 0.00 0.00 0.00 62 1012.1
20260507092849 56 146 1.0 4.0 0.00 0.00 0.00 63 1012.1
20260507092344 56 111 0.0 3.0 0.00 0.00 0.00 62 1012.0
20260507091838 56 128 0.0 3.0 0.00 0.00 0.00 63 1012.0
20260507091332 56 201 0.0 3.0 0.00 0.00 0.00 63 1011.8
20260507090826 56 144 0.0 2.0 0.00 0.00 0.00 62 1011.7
20260507090320 56 145 0.0 2.0 0.00 0.00 0.00 64 1011.6
20260507085814 56 139 0.0 2.0 0.00 0.00 0.00 63 1011.6
20260507085308 56 138 0.0 2.0 0.00 0.00 0.00 63 1011.6
20260507084802 56 117 0.0 3.0 0.00 0.00 0.00 63 1011.6
20260507084255 56 119 0.0 3.0 0.00 0.00 0.00 64 1011.6
20260507083750 57 112 0.0 3.0 0.00 0.00 0.00 64 1011.7
20260507083243 57 107 1.0 2.0 0.00 0.00 0.00 65 1011.6
20260507082737 57 107 0.0 2.0 0.00 0.00 0.00 63 1011.5
20260507082231 58 123 0.0 2.0 0.00 0.00 0.00 63 1011.6
20260507081954 58 207 0.0 2.0 0.00 0.00 0.00 62 1011.4
20260507081450 58 208 0.0 2.0 0.00 0.00 0.00 61 1011.4
20260507080947 59 209 0.0 1.0 0.00 0.00 0.00 61 1011.4
20260507080449 59 209 0.0 1.0 0.00 0.00 0.00 61 1011.3
20260507075730 59 129 0.0 1.0 0.00 0.00 0.00 61 1011.3
20260507075452 59 129 0.0 2.0 0.00 0.00 0.00 60 1011.2
20260507074729 60 129 0.0 2.0 0.00 0.00 0.00 60 1011.2
20260507074229 60 130 0.0 2.0 0.00 0.00 0.00 59 1011.2
20260507073950 60 146 0.0 2.0 0.00 0.00 0.00 59 1011.1
20260507073453 61 201 0.0 1.0 0.00 0.00 0.00 59 1011.1
20260507072729 61 198 0.0 1.0 0.00 0.00 0.00 59 1011.1
20260507072229 61 198 0.0 4.0 0.00 0.00 0.00 58 1010.9
20260507071946 61 196 0.0 4.0 0.00 0.00 0.00 58 1010.9
20260507071225 62 140 0.0 2.0 0.00 0.00 0.00 58 1010.9
20260507070949 62 140 0.0 2.0 0.00 0.00 0.00 59 1010.9
20260507070222 62 128 0.0 4.0 0.00 0.00 0.00 58 1010.8
20260507065722 62 121 1.0 4.0 0.00 0.00 0.00 57 1010.8
20260507065222 62 133 1.0 3.0 0.00 0.00 0.00 58 1010.7
20260507064938 62 131 1.0 3.0 0.00 0.00 0.00 57 1010.7
20260507064220 62 165 1.0 3.0 0.00 0.00 0.00 57 1010.7
20260507063721 62 139 1.0 2.0 0.00 0.00 0.00 58 1010.6
20260507063220 63 121 0.0 2.0 0.00 0.00 0.00 57 1010.6
20260507062720 63 123 1.0 2.0 0.00 0.00 0.00 57 1010.4
20260507062220 63 100 1.0 3.0 0.00 0.00 0.00 56 1010.4
20260507061720 63 117 1.0 3.0 0.00 0.00 0.00 56 1010.4
20260507061220 64 124 0.0 3.0 0.00 0.00 0.00 56 1010.3
20260507060720 64 150 0.0 2.0 0.00 0.00 0.00 57 1010.3
20260507060220 64 150 0.0 2.0 0.00 0.00 0.00 58 1010.3
20260507055945 64 138 0.0 2.0 0.00 0.00 0.00 58 1010.3
20260507055221 63 150 0.0 2.0 0.00 0.00 0.00 60 1010.4
20260507054720 63 148 0.0 2.0 0.00 0.00 0.00 60 1010.4
20260507054220 63 117 0.0 2.0 0.00 0.00 0.00 60 1010.4
20260507053720 63 127 0.0 2.0 0.00 0.00 0.00 60 1010.4
20260507053220 64 188 0.0 4.0 0.00 0.00 0.00 59 1010.7
20260507052720 64 141 1.0 5.0 0.00 0.00 0.00 59 1010.7
20260507052221 64 100 1.0 5.0 0.00 0.00 0.00 59 1010.7
20260507051720 64 90 1.0 2.0 0.00 0.00 0.00 60 1010.9
20260507051221 64 30 1.0 7.0 0.00 0.00 0.00 60 1011.0
20260507050720 64 92 1.0 7.0 0.00 0.00 0.00 61 1010.9
20260507050220 64 88 1.0 2.0 0.00 0.00 0.00 59 1011.0
20260507045718 65 43 0.0 3.0 0.00 0.00 0.00 58 1010.8
20260507045442 65 290 0.0 3.0 0.00 0.00 0.00 58 1010.7
20260507044715 65 171 0.0 2.0 0.00 0.00 0.00 58 1010.6
20260507044217 65 179 0.0 2.0 0.00 0.00 0.00 58 1010.6
20260507043714 66 179 0.0 2.0 0.00 0.00 0.00 57 1010.4
20260507042204 66 136 0.0 4.0 0.00 0.00 0.00 57 1010.6
20260507041658 66 165 0.0 1.0 0.00 0.00 0.00 56 1010.6
20260507041151 66 169 0.0 1.0 0.00 0.00 0.00 57 1010.4
20260507040645 66 184 0.0 8.0 0.00 0.00 0.00 56 1010.6
20260507040139 66 188 1.0 8.0 0.00 0.00 0.00 56 1010.4
20260507035633 66 196 1.0 5.0 0.00 0.00 0.00 56 1010.4
20260507035127 66 211 0.0 3.0 0.00 0.00 0.00 55 1010.6
20260507034622 66 163 0.0 1.0 0.00 0.00 0.00 55 1010.4
20260507034115 66 187 0.0 1.0 0.00 0.00 0.00 54 1010.6
20260507033829 67 160 0.0 0.0 0.00 0.00 0.00 53 1010.4
20260507033104 67 160 0.0 1.0 0.00 0.00 0.00 53 1010.3
20260507032052 67 160 0.0 2.0 0.00 0.00 0.00 52 1010.6
20260507031546 68 165 0.0 1.0 0.00 0.00 0.00 51 1010.4
20260507031256 68 175 0.0 1.0 0.00 0.00 0.00 50 1010.6
20260507030534 68 175 0.0 1.0 0.00 0.00 0.00 49 1010.4
20260507030027 69 175 0.0 1.0 0.00 0.00 0.00 49 1010.7
20260507025521 69 175 0.0 2.0 0.00 0.00 0.00 49 1010.7
20260507025016 69 175 0.0 2.0 0.00 0.00 0.00 50 1010.6
20260507024734 69 152 0.0 2.0 0.00 0.00 0.00 48 1010.3
20260507024225 69 142 0.0 2.0 0.00 0.00 0.00 48 1010.6
20260507023457 69 124 0.0 1.0 0.00 0.00 0.00 49 1010.7
20260507022951 69 124 0.0 1.0 0.00 0.00 0.00 49 1010.7
20260507022445 70 124 0.0 2.0 0.00 0.00 0.00 47 1010.8
20260507021939 70 144 0.0 2.0 0.00 0.00 0.00 47 1010.8
20260507021433 70 190 0.0 2.0 0.00 0.00 0.00 47 1010.7
20260507020928 70 140 0.0 2.0 0.00 0.00 0.00 48 1010.6
20260507020422 70 150 0.0 2.0 0.00 0.00 0.00 46 1010.8
20260507015916 70 161 0.0 2.0 0.00 0.00 0.00 46 1010.9
20260507015409 71 206 0.0 1.0 0.00 0.00 0.00 48 1010.8
20260507014903 71 190 1.0 3.0 0.00 0.00 0.00 47 1010.8
20260507014358 71 154 1.0 4.0 0.00 0.00 0.00 46 1010.8
20260507013852 71 163 0.0 4.0 0.00 0.00 0.00 45 1011.0
20260507013346 71 165 1.0 4.0 0.00 0.00 0.00 45 1011.0
20260507012840 71 234 1.0 4.0 0.00 0.00 0.00 45 1010.9
20260507012334 72 205 2.0 7.0 0.00 0.00 0.00 45 1010.6
20260507011827 72 211 3.0 10.0 0.00 0.00 0.00 45 1010.8
20260507011322 72 229 3.0 10.0 0.00 0.00 0.00 45 1011.0
20260507010816 72 225 3.0 10.0 0.00 0.00 0.00 45 1011.2
20260507010309 72 200 3.0 10.0 0.00 0.00 0.00 45 1011.0
20260507005803 72 227 3.0 10.0 0.00 0.00 0.00 47 1010.9
20260507005257 72 244 2.0 8.0 0.00 0.00 0.00 46 1011.1
20260507004751 72 239 1.0 5.0 0.00 0.00 0.00 48 1011.2
20260507004246 72 219 1.0 5.0 0.00 0.00 0.00 47 1011.3
20260507003740 72 176 1.0 4.0 0.00 0.00 0.00 47 1011.2
20260507003233 73 200 1.0 4.0 0.00 0.00 0.00 47 1011.3
20260507002727 73 180 2.0 7.0 0.00 0.00 0.00 47 1011.3
20260507002441 73 200 2.0 11.0 0.00 0.00 0.00 46 1011.4
20260507001715 73 194 3.0 11.0 0.00 0.00 0.00 46 1011.4
20260507001210 73 222 3.0 10.0 0.00 0.00 0.00 45 1011.3
20260507000158 73 207 4.0 11.0 0.00 0.00 0.00 45 1011.4
20260506235652 74 235 3.0 11.0 0.00 0.00 0.00 44 1011.4
20260506235145 74 199 2.0 8.0 0.00 0.00 0.00 45 1011.5
20260506234639 74 207 2.0 8.0 0.00 0.00 0.00 45 1011.4
20260506234133 74 186 2.0 7.0 0.00 0.00 0.00 46 1011.5
20260506233627 74 206 3.0 11.0 0.00 0.00 0.00 45 1011.5
20260506233121 74 204 3.0 11.0 0.00 0.00 0.00 46 1011.5
20260506232615 74 205 2.0 9.0 0.00 0.00 0.00 45 1011.5
20260506232109 74 232 3.0 10.0 0.00 0.00 0.00 45 1011.4
20260506231823 74 259 5.0 12.0 0.00 0.00 0.00 43 1011.5
20260506231317 75 250 5.0 14.0 0.00 0.00 0.00 44 1011.5
20260506230551 76 229 4.0 14.0 0.00 0.00 0.00 44 1011.6
20260506230046 77 222 4.0 13.0 0.00 0.00 0.00 44 1011.6
20260506225540 77 266 4.0 11.0 0.00 0.00 0.00 44 1011.5
20260506225033 76 257 3.0 9.0 0.00 0.00 0.00 45 1011.5
20260506224752 76 198 2.0 11.0 0.00 0.00 0.00 44 1011.7
20260506224034 75 211 5.0 13.0 0.00 0.00 0.00 45 1011.7
20260506223533 75 256 5.0 13.0 0.00 0.00 0.00 45 1011.8
20260506223033 75 205 4.0 13.0 0.00 0.00 0.00 44 1011.8
20260506222534 75 236 2.0 13.0 0.00 0.00 0.00 44 1011.8
20260506222031 75 225 1.0 7.0 0.00 0.00 0.00 45 1011.8
20260506221530 74 151 2.0 9.0 0.00 0.00 0.00 46 1012.0
20260506221029 74 182 3.0 11.0 0.00 0.00 0.00 45 1012.0
20260506220529 74 258 4.0 12.0 0.00 0.00 0.00 45 1012.2
20260506220029 75 256 4.0 12.0 0.00 0.00 0.00 43 1012.3
20260506215751 76 206 4.0 11.0 0.00 0.00 0.00 44 1012.3
20260506215029 76 184 2.0 9.0 0.00 0.00 0.00 43 1012.2
20260506214751 76 236 2.0 12.0 0.00 0.00 0.00 46 1012.4
20260506214256 75 210 2.0 12.0 0.00 0.00 0.00 45 1012.6
20260506213529 75 173 2.0 9.0 0.00 0.00 0.00 44 1012.5
20260506212523 74 195 2.0 8.0 0.00 0.00 0.00 45 1012.6
20260506212023 74 215 2.0 8.0 0.00 0.00 0.00 46 1012.8
20260506211523 73 248 1.0 7.0 0.00 0.00 0.00 45 1012.7
20260506211023 73 223 1.0 7.0 0.00 0.00 0.00 44 1012.8
20260506210523 73 159 3.0 14.0 0.00 0.00 0.00 44 1013.0
20260506210023 73 211 4.0 14.0 0.00 0.00 0.00 45 1013.1
20260506205750 73 239 5.0 14.0 0.00 0.00 0.00 45 1013.0
20260506205023 72 223 4.0 14.0 0.00 0.00 0.00 44 1013.2
20260506204523 72 256 3.0 8.0 0.00 0.00 0.00 44 1013.2
20260506204019 72 254 3.0 9.0 0.00 0.00 0.00 44 1013.3
20260506203519 72 225 4.0 9.0 0.00 0.00 0.00 43 1013.6
20260506203249 71 254 4.0 10.0 0.00 0.00 0.00 43 1013.3
20260506202519 71 193 5.0 11.0 0.00 0.00 0.00 44 1013.6
20260506202019 71 231 4.0 11.0 0.00 0.00 0.00 42 1013.6
20260506201744 72 231 3.0 11.0 0.00 0.00 0.00 41 1013.5
20260506201019 72 194 2.0 11.0 0.00 0.00 0.00 42 1013.5
20260506200519 73 224 2.0 10.0 0.00 0.00 0.00 42 1013.5
20260506200019 72 217 3.0 13.0 0.00 0.00 0.00 42 1013.5
20260506195519 71 228 3.0 14.0 0.00 0.00 0.00 43 1013.5
20260506195019 71 231 2.0 14.0 0.00 0.00 0.00 43 1013.5
20260506194519 71 252 3.0 9.0 0.00 0.00 0.00 41 1013.6
20260506194238 70 158 4.0 9.0 0.00 0.00 0.00 44 1013.5
20260506193517 70 286 4.0 13.0 0.00 0.00 0.00 41 1013.7
20260506193017 71 266 3.0 13.0 0.00 0.00 0.00 42 1013.8
20260506192741 70 250 3.0 8.0 0.00 0.00 0.00 46 1013.8
20260506192016 70 198 3.0 8.0 0.00 0.00 0.00 41 1013.9
20260506191517 70 260 2.0 8.0 0.00 0.00 0.00 41 1014.0
20260506191016 70 264 2.0 6.0 0.00 0.00 0.00 44 1014.0
20260506190513 69 236 2.0 5.0 0.00 0.00 0.00 43 1014.1
20260506190013 68 226 2.0 9.0 0.00 0.00 0.00 45 1014.2
20260506185733 67 157 2.0 9.0 0.00 0.00 0.00 47 1014.3
20260506185011 67 263 2.0 8.0 0.00 0.00 0.00 45 1014.5
20260506184509 65 199 2.0 8.0 0.00 0.00 0.00 46 1014.5
20260506184230 65 215 2.0 5.0 0.00 0.00 0.00 44 1014.6
20260506183227 65 221 2.0 9.0 0.00 0.00 0.00 43 1014.5
20260506182507 66 188 3.0 11.0 0.00 0.00 0.00 44 1014.6
20260506182006 65 234 4.0 11.0 0.00 0.00 0.00 43 1014.5
20260506181505 65 210 3.0 10.0 0.00 0.00 0.00 42 1014.5
20260506181005 65 247 2.0 6.0 0.00 0.00 0.00 45 1014.6
20260506180505 65 218 1.0 6.0 0.00 0.00 0.00 44 1014.5
20260506180005 65 224 2.0 8.0 0.00 0.00 0.00 44 1014.6
20260506175505 64 205 3.0 8.0 0.00 0.00 0.00 44 1014.6
20260506175222 64 225 2.0 8.0 0.00 0.00 0.00 43 1014.7
20260506174503 64 198 1.0 8.0 0.00 0.00 0.00 40 1014.9
20260506174004 64 202 1.0 6.0 0.00 0.00 0.00 41 1014.9
20260506173457 63 141 1.0 4.0 0.00 0.00 0.00 39 1014.9
20260506172951 63 211 2.0 6.0 0.00 0.00 0.00 44 1014.9
20260506172446 63 271 1.0 5.0 0.00 0.00 0.00 41 1015.1
20260506171939 62 251 1.0 4.0 0.00 0.00 0.00 43 1015.2
20260506171434 62 203 1.0 4.0 0.00 0.00 0.00 50 1015.2
20260506170928 62 282 0.0 1.0 0.00 0.00 0.00 48 1015.2
20260506170422 61 277 0.0 1.0 0.00 0.00 0.00 49 1015.3
20260506170142 61 266 0.0 1.0 0.00 0.00 0.00 48 1015.4
20260506165410 60 213 0.0 1.0 0.00 0.00 0.00 50 1015.5
20260506164904 60 296 0.0 2.0 0.00 0.00 0.00 53 1015.5
20260506164358 59 308 0.0 2.0 0.00 0.00 0.00 52 1015.6
20260506163852 59 293 0.0 2.0 0.00 0.00 0.00 54 1015.6
20260506163346 58 293 0.0 2.0 0.00 0.00 0.00 54 1015.6
20260506162840 58 289 0.0 2.0 0.00 0.00 0.00 56 1015.6
20260506161828 56 255 1.0 3.0 0.00 0.00 0.00 53 1015.5
20260506161322 56 229 0.0 3.0 0.00 0.00 0.00 53 1015.5
20260506161034 56 241 0.0 2.0 0.00 0.00 0.00 52 1015.6
20260506160309 56 266 0.0 3.0 0.00 0.00 0.00 51 1015.7
20260506155803 56 29 1.0 3.0 0.00 0.00 0.00 51 1015.8
20260506155258 56 60 0.0 2.0 0.00 0.00 0.00 51 1015.7
20260506154246 55 24 0.0 3.0 0.00 0.00 0.00 54 1015.7
20260506153740 54 244 0.0 1.0 0.00 0.00 0.00 57 1015.7
20260506153455 53 253 0.0 1.0 0.00 0.00 0.00 61 1015.8
20260506152727 53 26 0.0 1.0 0.00 0.00 0.00 63 1015.8
20260506152222 53 74 0.0 1.0 0.00 0.00 0.00 63 1015.9
20260506151716 52 80 0.0 0.0 0.00 0.00 0.00 65 1015.8
20260506150704 49 80 0.0 0.0 0.00 0.00 0.00 67 1015.9
20260506150157 49 79 0.0 0.0 0.00 0.00 0.00 67 1015.9
20260506145651 48 79 0.0 0.0 0.00 0.00 0.00 65 1015.9
20260506145145 48 79 0.0 0.0 0.00 0.00 0.00 68 1015.9
20260506144857 48 79 0.0 0.0 0.00 0.00 0.00 67 1016.0
20260506144134 48 79 0.0 0.0 0.00 0.00 0.00 65 1015.9
20260506143850 48 79 0.0 0.0 0.00 0.00 0.00 65 1015.8
20260506143122 47 79 0.0 0.0 0.00 0.00 0.00 65 1015.8
20260506142616 47 108 0.0 0.0 0.00 0.00 0.00 65 1015.9
20260506142111 47 121 0.0 0.0 0.00 0.00 0.00 66 1015.9
20260506141603 47 121 0.0 0.0 0.00 0.00 0.00 66 1015.9
20260506141057 46 121 0.0 0.0 0.00 0.00 0.00 67 1015.8
20260506140551 46 121 0.0 0.0 0.00 0.00 0.00 68 1015.8
20260506140046 45 121 0.0 0.0 0.00 0.00 0.00 68 1015.8
20260506135539 45 121 0.0 0.0 0.00 0.00 0.00 69 1015.8
20260506135034 44 121 0.0 0.0 0.00 0.00 0.00 71 1015.8